Regional Weather Roundup
Issued by NWS

Home | Current Version | Previous Version | Graphics & Text | Print | Product List | Glossary On
Versions: 1 2 3 4 5 6 7 8 9 10 11 12 13 14 15 16 17 18 19 20 21 22 23 24 25 26 27
000
ASUS45 KTFX 010310
RWRMT
MONTANA REGIONAL WEATHER ROUNDUP
NATIONAL WEATHER SERVICE GREAT FALLS MT
900 PM MDT SAT APR 30 2016

NOTE: "FAIR" INDICATES FEW OR NO CLOUDS BELOW 12000 FEET WITH NO
SIGNIFICANT WEATHER AND/OR OBSTRUCTIONS TO VISIBILITY.

MTZ001>007-043-010400-
WEST OF THE DIVIDE

CITY           SKY/WX    TMP DP  RH WIND       PRES   REMARKS
KALISPELL      CLOUDY    57  32  38 E9        30.25R
MISSOULA       CLOUDY    52  42  69 E3        30.26R
BUTTE          CLOUDY    43  30  60 NE9       30.27R
MULLAN PASS    CLEAR     40  31  70 SE5       30.27R
ANACONDA         N/A     43  34  70 N8        30.26R
DEER LODGE       N/A     46  34  61 N5        30.29R
EUREKA           N/A     52  36  54 CALM      30.26R
HAMILTON         N/A     48  39  71 NW7       30.24R
LIBBY            N/A     57  37  47 CALM      30.24R
PLAINS           N/A     51  43  74 CALM      30.23R
$$

MTZ008-052>055-010400-
SOUTHWEST MONTANA

CITY           SKY/WX    TMP DP  RH WIND       PRES   REMARKS
BOZEMAN        CLOUDY    44  31  60 E9        30.26R
DILLON         CLOUDY    42  33  70 N16       30.19S
ENNIS          CLOUDY    41  32  70 N16G24    30.25R
THREE FORKS      N/A     47  22  37 CALM      30.23R
TWIN BRIDGES     N/A     45  29  53 N12       30.17R
$$

MTZ009-010-012-014-046-048-049-054-010400-
EAST SLOPES AND CENTRAL MONTANA

CITY           SKY/WX    TMP DP  RH WIND       PRES   REMARKS
CUT BANK       CLOUDY    48  36  63 CALM      30.32R
GREAT FALLS    CLOUDY    45  34  65 E8        30.30R
HELENA         CLOUDY    47  37  68 N6        30.27R
CHOTEAU          N/A     45  41  87 E3        30.32R
CONRAD           N/A     49  42  76 CALM      30.31R
$$

MTZ011-013-016-021-045-047-050-051-010400-
NORTH CENTRAL MONTANA

CITY           SKY/WX    TMP DP  RH WIND       PRES   REMARKS
HAVRE          CLEAR     48  38  68 E7        30.30R
LEWISTOWN      CLOUDY    47  34  60 E5        30.31R
N BAR RANCH    CLOUDY    43  34  70 W3        30.33R
CHINOOK          N/A     52  36  54 CALM      30.31R
$$

MTZ017>020-022>027-061-062-010400-
NORTHEAST MONTANA

CITY           SKY/WX    TMP DP  RH WIND       PRES   REMARKS
GLASGOW        CLEAR     49  32  52 E10       30.29R
JORDAN           N/A     45  36  70 NE9       30.28R
SIDNEY         CLEAR     45  30  57 CALM      30.29R
WOLF POINT     CLEAR     50  34  54 NE6       30.29R
PLENTYWOOD       N/A     48  25  40 NE7       30.31R
POPLAR           N/A     48  30  49 NE7       30.30R
SCOBEY           N/A     45  22  40 E5        30.28R
$$

MTZ028>42-056>058-010400-
SOUTHCENTRAL AND SOUTHEAST MONTANA

CITY           SKY/WX    TMP DP  RH WIND       PRES   REMARKS
BAKER          CLEAR     41  33  73 NE6       30.27R
BILLINGS       CLOUDY    49  34  56 N5        30.28R
LIVINGSTON     CLOUDY    43  34  70 E6        30.28R
MILES CITY     CLEAR     51  30  44 NE7       30.26R
EKALAKA          N/A     42  29  60 E3        30.22R
FORSYTH          N/A     54  30  40 CALM      30.27R
LAUREL           N/A     47  29  50 CALM      30.24R
ROUNDUP          N/A     50  34  54 CALM      30.19R
$$

REGIONAL REPORTS...DAKOTAS

CITY           SKY/WX    TMP DP  RH WIND       PRES   REMARKS
WILLISTON      CLEAR     49  30  48 N6        30.29R
MINOT          CLEAR     50  26  39 NE6       30.27R
DICKINSON      CLEAR     43  27  53 NE7       30.25R
BEACH            N/A     39  28  65 E5        30.32R
CROSBY           N/A     45  28  53 NE6       30.33R
WATFORD CITY     N/A     43  30  61 SE6       30.29R
BISMARCK       CLEAR     49  30  48 NE8       30.25R
GRAND FORKS    PTCLDY    51  29  42 NE12      30.25R
FARGO          CLOUDY    53  28  38 NE14      30.19R
BUFFALO SD       N/A     42  29  59 NE10      30.18R
RAPID CITY     PTCLDY    40  31  70 N10       30.19R
$$

REGIONAL REPORTS...WYOMING/IDAHO/WASHINGTON

CITY           SKY/WX    TMP DP  RH WIND       PRES   REMARKS
GILLETTE       MOCLDY    43  32  65 N8        30.23R
SHERIDAN       CLOUDY    45  36  70 W7        30.27R
BUFFALO WY       N/A    N/A N/A N/A MISG      30.27R
CODY           CLOUDY    43  30  61 NW15G21   30.25R
YELLOWSTONE LA   N/A     34  24  67 VRB5      30.24R
IDAHO FALLS    CLOUDY    53  31  42 N13       30.05R
SALMON         CLOUDY    48  37  66 CALM      30.18R
BOISE          MOCLDY    57  37  47 NW15      30.04R
SPOKANE        MOCLDY    57  42  57 VRB5      30.24S
$$

REGIONAL REPORTS...ALBERTA

CITY           SKY/WX    TMP DP  RH WIND       PRES   REMARKS
EDMONTON       PTCLDY    54  32  43 SW5       30.21S
CALGARY        PTCLDY    50  28  43 S6G30     30.29R
LETHBRIDGE     MOCLDY    54  36  50 VRB2      30.30R
MEDICINE HAT   CLOUDY    54  41  62 SW5       30.30R
WATERTON GATE    N/A     46  36  66 N2          N/A
CARDSTON         N/A     50  36  57 SE3         N/A
MILK RIVER       N/A     46  39  76 S3          N/A
$$

REGIONAL REPORTS...SASKATCHEWAN

CITY           SKY/WX    TMP DP  RH WIND       PRES   REMARKS
SWIFT CURRENT  CLEAR     48  27  43 SE7       30.29R
REGINA         PTCLDY    55  23  28 E7        30.32R
SASKATOON      PTCLDY    55  27  33 S7        30.28S
CYPRESS HILLS    N/A     45  28  53 CALM        N/A
VAL MARIE        N/A     46  30  53 NW2         N/A
ROCKGLEN         N/A     48  25  40 E5          N/A
ASSINIBOIA       N/A     55  32  41 S7          N/A
$$




USA.gov is the U.S. government's official web portal to all federal, state and local government web resources and services.